When you browse on this site, cookies collect data to enhance your experience and personalize the content and advertising you see.
Visit our Privacy Policy to learn more. By continuing to use the site, you agree to this use of cookies and data.

Tiempo cada hora Cuiaba

Hoy, 18 Septiembre, Viernes

Tiempo Temperatura Precipitaciones Viento Presión Humedad
00:00 +27°C° 0 mm 1 mps 738 mmHg 35%
01:00 +25°C° 0 mm 0 mps 738 mmHg 36%
02:00 +24°C° 0 mm 0 mps 737 mmHg 37%
03:00 +24°C° 0 mm 0 mps 737 mmHg 38%
04:00 +25°C° 0 mm 1 mps 738 mmHg 39%
05:00 +25°C° 0 mm 1 mps 738 mmHg 40%
06:00 +28°C° 0 mm 1 mps 738 mmHg 35%
07:00 +29°C° 0 mm 0 mps 739 mmHg 29%
08:00 +33°C° 0 mm 0 mps 740 mmHg 23%
09:00 +39°C° 0 mm 1 mps 740 mmHg 19%
10:00 +43°C° 0 mm 1 mps 740 mmHg 15%
11:00 +46°C° 0 mm 1 mps 740 mmHg 12%
12:00 +46°C° 0 mm 1 mps 738 mmHg 11%
13:00 +46°C° 0 mm 2 mps 737 mmHg 11%
14:00 +46°C° 0 mm 2 mps 736 mmHg 11%
15:00 +43°C° 0 mm 2 mps 736 mmHg 12%
16:00 +42°C° 0 mm 1 mps 736 mmHg 12%
17:00 +41°C° 0 mm 1 mps 736 mmHg 13%
18:00 +39°C° 0 mm 1 mps 736 mmHg 16%
19:00 +35°C° 0 mm 1 mps 737 mmHg 18%
20:00 +33°C° 0 mm 1 mps 737 mmHg 20%
21:00 +32°C° 0 mm 1 mps 737 mmHg 21%
22:00 +32°C° 0 mm 1 mps 737 mmHg 22%
23:00 +29°C° 0 mm 0 mps 738 mmHg 23%

Mañana, 19 Septiembre, Sábado

Tiempo Temperatura Precipitaciones Viento Presión Humedad
00:00 +30°C° 0 mm 1 mps 737 mmHg 24%
01:00 +30°C° 0 mm 1 mps 737 mmHg 26%
02:00 +29°C° 0 mm 1 mps 736 mmHg 27%
03:00 +28°C° 0 mm 1 mps 736 mmHg 29%
04:00 +27°C° 0 mm 1 mps 737 mmHg 31%
05:00 +26°C° 0 mm 1 mps 737 mmHg 32%
06:00 +27°C° 0 mm 0 mps 738 mmHg 27%
07:00 +31°C° 0 mm 0 mps 738 mmHg 22%
08:00 +35°C° 0 mm 0 mps 739 mmHg 18%
09:00 +38°C° 0 mm 0 mps 739 mmHg 15%
10:00 +45°C° 0 mm 1 mps 739 mmHg 12%
11:00 +49°C° 0 mm 1 mps 739 mmHg 9%
12:00 +48°C° 0 mm 1 mps 738 mmHg 9%
13:00 +48°C° 0 mm 2 mps 737 mmHg 9%
14:00 +48°C° 0 mm 2 mps 736 mmHg 9%
15:00 +46°C° 0 mm 2 mps 735 mmHg 9%
16:00 +45°C° 0 mm 2 mps 735 mmHg 10%
17:00 +43°C° 0 mm 1 mps 735 mmHg 11%
18:00 +40°C° 0 mm 1 mps 736 mmHg 13%
19:00 +37°C° 0 mm 1 mps 736 mmHg 15%
20:00 +35°C° 0 mm 1 mps 737 mmHg 17%
21:00 +35°C° 0 mm 2 mps 737 mmHg 20%
22:00 +35°C° 0 mm 4 mps 738 mmHg 22%
23:00 +34°C° 0 mm 5 mps 738 mmHg 25%

Pasado mañana, 20 Septiembre, Domingo

Tiempo Temperatura Precipitaciones Viento Presión Humedad
00:00 +33°C° 0 mm 5 mps 738 mmHg 29%
01:00 +32°C° 0 mm 4 mps 738 mmHg 33%
02:00 +29°C° 0 mm 4 mps 737 mmHg 38%
03:00 +29°C° 0 mm 4 mps 738 mmHg 39%
04:00 +28°C° 0 mm 4 mps 738 mmHg 41%
05:00 +28°C° 0 mm 3 mps 738 mmHg 42%
06:00 +30°C° 0 mm 4 mps 739 mmHg 38%
07:00 +33°C° 0 mm 4 mps 739 mmHg 34%
08:00 +35°C° 0 mm 4 mps 740 mmHg 30%
09:00 +37°C° 0 mm 4 mps 740 mmHg 26%
10:00 +41°C° 0 mm 4 mps 739 mmHg 21%
11:00 +43°C° 0 mm 3 mps 739 mmHg 17%
12:00 +44°C° 0 mm 3 mps 738 mmHg 16%
13:00 +45°C° 0 mm 3 mps 737 mmHg 14%
14:00 +47°C° 0 mm 2 mps 736 mmHg 13%
15:00 +45°C° 0 mm 2 mps 735 mmHg 14%
16:00 +43°C° 0 mm 2 mps 735 mmHg 14%
17:00 +42°C° 0 mm 2 mps 735 mmHg 15%
18:00 +40°C° 0 mm 2 mps 735 mmHg 18%
19:00 +38°C° 0 mm 2 mps 736 mmHg 20%
20:00 +36°C° 0 mm 2 mps 736 mmHg 23%
21:00 +34°C° 0 mm 2 mps 736 mmHg 25%
22:00 +32°C° 0 mm 2 mps 737 mmHg 27%
23:00 +31°C° 0 mm 2 mps 737 mmHg 29%

21 Septiembre, Lunes

Tiempo Temperatura Precipitaciones Viento Presión Humedad
00:00 +30°C° 0 mm 2 mps 737 mmHg 32%
01:00 +29°C° 0 mm 2 mps 737 mmHg 35%
02:00 +28°C° 0 mm 2 mps 736 mmHg 37%
03:00 +27°C° 0 mm 2 mps 737 mmHg 40%
04:00 +26°C° 0 mm 2 mps 737 mmHg 43%
05:00 +25°C° 0 mm 2 mps 737 mmHg 46%
06:00 +27°C° 0 mm 2 mps 738 mmHg 42%
07:00 +29°C° 0 mm 3 mps 738 mmHg 37%
08:00 +31°C° 0 mm 3 mps 739 mmHg 33%
09:00 +35°C° 0 mm 3 mps 739 mmHg 29%
10:00 +37°C° 0 mm 3 mps 739 mmHg 25%
11:00 +40°C° 0 mm 3 mps 739 mmHg 21%
12:00 +40°C° 0 mm 3 mps 738 mmHg 21%
13:00 +42°C° 0 mm 3 mps 737 mmHg 21%
14:00 +42°C° 0 mm 3 mps 736 mmHg 20%
15:00 +41°C° 0 mm 4 mps 736 mmHg 22%
16:00 +40°C° 0 mm 4 mps 736 mmHg 24%
17:00 +40°C° 0 mm 5 mps 736 mmHg 25%
18:00 +36°C° 0 mm 5 mps 737 mmHg 31%
19:00 +34°C° 0 mm 5 mps 738 mmHg 36%
20:00 +32°C° 0 mm 5 mps 738 mmHg 42%
21:00 +30°C° 0 mm 4 mps 738 mmHg 44%
22:00 +29°C° 0 mm 3 mps 738 mmHg 47%
23:00 +28°C° 0 mm 2 mps 739 mmHg 49%

22 Septiembre, Martes

Tiempo Temperatura Precipitaciones Viento Presión Humedad
00:00 +27°C° 0.2 mm 2 mps 738 mmHg 55%
01:00 +26°C° 0.2 mm 2 mps 738 mmHg 60%
02:00 +25°C° 0.2 mm 2 mps 738 mmHg 65%
03:00 +24°C° 0.2 mm 2 mps 738 mmHg 68%
04:00 +24°C° 0.2 mm 1 mps 738 mmHg 70%
05:00 +24°C° 0.2 mm 1 mps 739 mmHg 73%
06:00 +26°C° 0.2 mm 1 mps 739 mmHg 66%
07:00 +27°C° 0.2 mm 1 mps 740 mmHg 60%
08:00 +29°C° 0.2 mm 1 mps 741 mmHg 54%
09:00 +33°C° 0.1 mm 1 mps 741 mmHg 45%
10:00 +36°C° 0.1 mm 1 mps 741 mmHg 36%
11:00 +40°C° 0.1 mm 1 mps 741 mmHg 28%
12:00 +40°C° 0 mm 2 mps 740 mmHg 27%
13:00 +40°C° 0 mm 3 mps 739 mmHg 27%
14:00 +41°C° 0 mm 4 mps 738 mmHg 26%
15:00 +37°C° 0.5 mm 4 mps 738 mmHg 35%
16:00 +35°C° 0.5 mm 4 mps 738 mmHg 44%
17:00 +32°C° 0.5 mm 4 mps 738 mmHg 53%
18:00 +29°C° 0.3 mm 4 mps 738 mmHg 58%
19:00 +28°C° 0.3 mm 3 mps 739 mmHg 62%
20:00 +26°C° 0.3 mm 3 mps 739 mmHg 67%
21:00 +26°C° 0.1 mm 2 mps 739 mmHg 68%
22:00 +26°C° 0.1 mm 1 mps 739 mmHg 69%
23:00 +26°C° 0.1 mm 1 mps 739 mmHg 70%

23 Septiembre, Miércoles

Tiempo Temperatura Precipitaciones Viento Presión Humedad
00:00 +25°C° 0.1 mm 1 mps 739 mmHg 71%
01:00 +25°C° 0.1 mm 1 mps 739 mmHg 73%
02:00 +25°C° 0.1 mm 1 mps 738 mmHg 74%
03:00 +23°C° 0 mm 0 mps 739 mmHg 75%
04:00 +22°C° 0 mm 0 mps 739 mmHg 75%
05:00 +22°C° 0 mm 0 mps 739 mmHg 76%
06:00 +26°C° 0 mm 1 mps 740 mmHg 67%
07:00 +29°C° 0 mm 1 mps 741 mmHg 58%
08:00 +31°C° 0 mm 1 mps 742 mmHg 50%
09:00 +34°C° 0 mm 1 mps 742 mmHg 42%
10:00 +37°C° 0 mm 1 mps 742 mmHg 35%
11:00 +41°C° 0 mm 1 mps 742 mmHg 28%
12:00 +41°C° 0 mm 2 mps 741 mmHg 27%
13:00 +42°C° 0 mm 3 mps 740 mmHg 26%
14:00 +42°C° 0 mm 4 mps 739 mmHg 25%
15:00 +40°C° 0 mm 3 mps 739 mmHg 27%
16:00 +39°C° 0 mm 3 mps 739 mmHg 29%
17:00 +38°C° 0 mm 2 mps 739 mmHg 30%
18:00 +35°C° 0 mm 2 mps 739 mmHg 37%
19:00 +32°C° 0 mm 2 mps 740 mmHg 43%
20:00 +29°C° 0 mm 2 mps 740 mmHg 49%
21:00 +29°C° 0 mm 2 mps 740 mmHg 51%
22:00 +28°C° 0 mm 2 mps 740 mmHg 52%
23:00 +28°C° 0 mm 2 mps 740 mmHg 53%
Mostrar más